FW0403 Weather Reports


time (UTC)temp
C
wind
direction
speed
KPH
gust
KPH
rain 1hr
cm
rain 24hr
cm
rain mn
cm
humidity
%
barometer
mb
20260502182611 22 332 19.3 32.2 0.00 2.21 0.00 50 1018.6
20260502181441 21 338 20.9 35.4 0.00 2.21 0.00 51 1018.9
20260502180929 21 12 20.9 35.4 0.00 2.21 0.00 51 1018.9
20260502180414 21 20 20.9 35.4 0.00 2.21 0.00 51 1018.9
20260502170113 20 46 19.3 32.2 0.00 2.21 0.00 62 1019.4
20260502163904 20 19 20.9 30.6 0.00 2.21 0.00 64 1019.3
20260502163400 20 7 19.3 33.8 0.00 2.26 0.00 64 1019.1
20260502162235 19 93 20.9 33.8 0.00 2.39 0.00 65 1019.1
20260502161722 20 32 19.3 32.2 0.00 2.39 0.00 66 1019.1
20260502161220 19 13 20.9 38.6 0.00 2.39 0.00 66 1019.1
20260502160710 19 73 22.5 38.6 0.00 2.39 0.00 67 1019.1
20260502160209 19 24 22.5 38.6 0.00 2.39 0.00 68 1018.8
20260502151917 18 42 22.5 37.0 0.00 2.41 0.00 72 1018.8
20260502151401 18 11 24.1 37.0 0.00 2.41 0.00 73 1018.8
20260502150908 18 21 24.1 37.0 0.00 2.54 0.00 72 1018.7
20260502130143 16 47 20.9 33.8 0.00 3.02 0.00 75 1017.5
20260502123503 15 2 16.1 30.6 0.00 3.02 0.00 78 1017.3
20260502122954 15 338 17.7 30.6 0.00 3.02 0.00 78 1017.2
20260502122441 15 38 17.7 32.2 0.00 3.02 0.00 79 1017.0
20260502121947 15 2 17.7 32.2 0.00 3.02 0.00 79 1016.9
20260502120201 15 48 16.1 30.6 0.00 3.02 0.00 79 1016.7
20260502115705 15 332 16.1 27.4 0.00 3.02 0.00 79 1016.7
20260502114031 15 113 16.1 27.4 0.00 3.02 0.00 78 1016.2
20260502113529 15 19 16.1 32.2 0.00 3.02 0.00 78 1016.0
20260502113029 15 37 16.1 32.2 0.00 3.02 0.00 77 1016.1
20260502112507 15 84 17.7 32.2 0.00 3.02 0.00 76 1016.0
20260502111949 14 30 17.7 32.2 0.00 3.02 0.00 78 1015.7
20260502111443 14 33 17.7 27.4 0.00 3.02 0.00 78 1015.8
20260502110328 14 48 14.5 25.7 0.00 3.02 0.00 80 1015.6
20260502105156 14 21 14.5 25.7 0.00 3.02 0.00 80 1015.5
20260502103423 14 38 11.3 24.1 0.00 3.02 0.00 81 1015.4
20260502102924 15 88 14.5 24.1 0.00 3.02 0.00 81 1015.5
20260502102416 15 57 14.5 24.1 0.00 3.02 0.00 81 1015.3
20260502101917 15 51 12.9 27.4 0.00 3.02 0.00 82 1015.2
20260502100746 15 23 12.9 27.4 0.00 3.02 0.00 82 1015.0
20260502100226 15 35 12.9 25.7 0.00 3.02 0.00 82 1014.8
20260502091057 15 40 16.1 29.0 0.00 3.02 0.00 82 1014.0
20260502090540 15 357 16.1 30.6 0.00 3.02 0.00 82 1013.9
20260502071450 15 2 22.5 37.0 0.00 3.02 0.00 83 1013.7
20260502070932 15 7 20.9 35.4 0.00 3.02 0.00 83 1013.7
20260502070434 15 18 20.9 33.8 0.00 3.02 0.00 83 1013.7
20260502065923 15 2 20.9 35.4 0.00 3.02 0.00 83 1013.7
20260502065404 15 2 19.3 35.4 0.00 3.02 0.00 83 1013.7
20260502064858 15 44 19.3 37.0 0.00 3.02 0.00 83 1013.8
20260502064401 15 37 22.5 37.0 0.00 3.02 0.00 83 1013.6
20260502063903 15 34 20.9 37.0 0.00 3.02 0.00 84 1013.8
20260502063355 15 25 19.3 37.0 0.00 3.02 0.00 84 1013.8
20260502062845 15 42 20.9 35.4 0.00 3.02 0.00 84 1013.9
20260502062340 15 57 24.1 35.4 0.00 3.02 0.00 83 1013.8
20260502061820 15 357 22.5 43.5 0.00 3.02 0.00 84 1013.9
20260502061257 15 357 22.5 43.5 0.00 3.02 0.00 84 1013.8
20260502060744 15 33 25.7 45.1 0.00 3.02 0.00 83 1013.6
20260502060224 15 21 25.7 45.1 0.00 3.02 0.00 83 1013.7
20260502055713 15 53 24.1 45.1 0.00 3.02 0.00 84 1013.6
20260502055210 15 137 24.1 45.1 0.00 3.02 0.00 84 1013.5
20260502054714 15 21 22.5 38.6 0.00 3.02 0.00 84 1013.4
20260502054204 15 24 22.5 38.6 0.00 3.02 0.00 84 1013.4
20260502053038 15 36 22.5 38.6 0.00 3.02 0.00 85 1013.5
20260502052516 16 26 24.1 38.6 0.00 3.02 0.00 85 1013.3
20260502052005 16 46 20.9 38.6 0.00 3.02 0.00 85 1013.4
20260502051445 16 40 0.0 38.6 0.00 3.02 0.00 85 1013.5
20260502050938 16 15 24.1 38.6 0.00 3.02 0.00 85 1013.6
20260502050421 16 332 20.9 38.6 0.00 3.02 0.00 85 1013.6
20260502045913 16 38 20.9 38.6 0.00 3.02 3.02 85 1013.8
20260502045351 16 68 22.5 38.6 0.00 3.02 3.02 85 1013.7
20260502044851 16 24 20.9 38.6 0.10 3.02 3.02 85 1013.6
20260502044340 16 17 22.5 35.4 0.13 3.02 3.02 86 1013.6
20260502043840 16 26 22.5 35.4 0.13 3.02 3.02 86 1013.7
20260502043343 16 22 17.7 32.2 0.00 3.02 3.02 86 1013.7
20260502042219 16 48 16.1 30.6 0.00 2.97 2.97 86 1013.3
20260502041715 16 32 14.5 29.0 0.00 2.97 2.97 86 1013.2
20260502041203 16 42 16.1 29.0 0.00 2.97 2.97 86 1013.7
20260502040642 16 323 17.7 32.2 0.00 2.97 2.97 86 1013.7
20260502040121 17 7 16.1 32.2 0.00 2.97 2.97 86 1013.3
20260502035627 17 39 17.7 32.2 0.00 2.97 2.97 86 1013.1
20260502035120 17 16 19.3 32.2 0.00 2.97 2.97 86 1013.0
20260502033952 17 21 17.7 30.6 0.15 2.97 2.97 87 1012.7
20260502033436 17 24 17.7 30.6 0.18 2.97 2.97 86 1012.8
20260502032921 17 2 17.7 30.6 0.18 2.95 2.95 86 1012.7
20260502032416 17 15 19.3 29.0 0.41 2.95 2.95 86 1012.3
20260502031220 17 12 16.1 29.0 0.00 2.87 2.87 87 1012.4
20260502030031 17 25 17.7 32.2 0.13 2.84 2.84 86 1012.4
20260502025535 17 319 16.1 32.2 0.20 2.84 2.84 86 1012.2
20260502025020 17 26 14.5 32.2 0.33 2.84 2.84 87 1012.2
20260502024521 17 7 12.9 27.4 0.53 2.79 2.79 87 1012.1
20260502024001 17 44 16.1 27.4 0.20 2.77 2.77 87 1012.3
20260502023447 17 57 14.5 25.7 0.20 2.72 2.72 87 1012.3
20260502022935 17 357 12.9 22.5 0.28 2.72 2.72 86 1012.4
20260502022441 17 13 12.9 22.5 0.41 2.72 2.72 86 1011.9
20260502021303 17 26 12.9 24.1 0.25 2.64 2.64 86 1011.8
20260502020809 17 18 14.5 25.7 0.33 2.64 2.64 86 1011.7
20260502020252 17 47 14.5 25.7 0.71 2.62 2.62 86 1011.7
20260502015131 17 17 12.9 29.0 0.74 2.49 2.49 86 1011.6
20260502014613 17 28 14.5 29.0 0.46 2.41 2.41 86 1011.4
20260502014102 17 40 16.1 29.0 0.56 2.39 2.39 85 1011.2
20260502013608 17 20 16.1 33.8 0.41 2.34 2.34 85 1011.0
20260502013108 17 34 17.7 33.8 0.74 2.31 2.31 85 1010.8
20260502012557 17 76 16.1 38.6 0.81 2.24 2.26 85 1010.5
20260502012050 18 340 17.7 38.6 0.36 2.21 2.21 85 1010.6
20260502011552 18 18 20.9 38.6 0.74 2.18 2.18 85 1010.7
20260502011030 18 113 22.5 38.6 1.32 2.11 2.11 85 1010.2
20260502010515 18 14 24.1 46.7 0.00 2.03 2.03 85 1010.2
20260502010018 18 338 29.0 46.7 0.00 2.03 2.03 84 1010.2
20260502005514 18 11 30.6 46.7 0.00 2.03 2.03 84 1009.7
20260502004955 18 33 29.0 46.7 0.00 2.03 2.03 85 1009.3
20260502004434 18 33 29.0 45.1 0.00 2.03 2.03 85 1009.1
20260502003302 18 57 24.1 45.1 0.00 2.03 2.03 85 1008.3
20260502002740 18 38 19.3 41.8 0.00 2.03 2.03 85 1008.2
20260502002234 18 57 20.9 41.8 0.00 2.03 2.03 85 1007.7
20260502001720 18 58 24.1 41.8 0.00 2.03 2.03 85 1007.7
20260502001224 18 50 22.5 38.6 0.00 2.03 2.03 86 1007.7
20260502000720 18 59 20.9 38.6 0.00 2.03 2.03 86 1008.1
20260502000205 18 25 22.5 33.8 0.00 2.03 2.03 86 1008.5
20260501235656 18 37 22.5 40.2 0.00 2.03 2.03 86 1008.3
20260501235143 18 42 22.5 40.2 0.00 2.03 2.03 86 1008.2
20260501234634 18 21 20.9 40.2 0.00 2.03 2.03 86 1007.9
20260501234126 18 44 22.5 40.2 0.00 2.03 2.03 86 1007.9
20260501233615 18 53 25.7 43.5 0.00 2.03 2.03 86 1007.6
20260501233101 18 44 25.7 43.5 0.00 2.03 2.03 86 1007.3
20260501231930 18 31 22.5 45.1 0.10 2.03 2.03 87 1007.7
20260501231419 18 63 22.5 45.1 0.10 2.03 2.03 87 1007.8
20260501230922 18 47 20.9 33.8 0.10 2.03 2.03 87 1007.8
20260501230424 18 38 20.9 33.8 0.13 2.01 2.01 86 1007.8
20260501225908 18 42 20.9 32.2 0.20 2.01 2.01 87 1007.5
20260501225400 19 70 19.3 33.8 0.30 2.01 2.01 87 1007.8
20260501224903 19 46 17.7 33.8 0.15 1.98 1.98 87 1007.9
20260501224342 19 59 17.7 33.8 0.00 1.96 1.96 87 1007.8
20260501223849 20 86 16.1 33.8 0.00 1.96 1.96 87 1008.4
20260501222722 19 51 14.5 35.4 0.00 1.93 1.93 87 1008.7
20260501222214 20 96 17.7 35.4 0.00 1.93 1.93 87 1008.7
20260501221653 20 24 20.9 41.8 0.00 1.93 1.93 87 1008.3
20260501221200 20 46 22.5 41.8 0.00 1.93 1.93 87 1008.0
20260501220704 20 57 24.1 43.5 0.10 1.93 1.93 87 1007.6
20260501215541 20 50 25.7 43.5 0.41 1.93 1.93 87 1007.6
20260501215039 19 47 24.1 43.5 0.79 1.88 1.88 86 1007.4
20260501214523 19 36 19.3 41.8 3.28 1.78 1.80 87 1007.4
20260501214029 19 47 16.1 33.8 0.41 1.68 1.68 86 1009.6
20260501213520 19 20 19.3 33.8 0.41 1.63 1.63 86 1010.0
20260501213007 19 43 20.9 33.8 0.00 1.57 1.57 86 1008.8
20260501211834 19 38 17.7 33.8 0.18 1.57 1.57 86 1008.7
20260501211340 19 63 19.3 33.8 0.25 1.57 1.57 86 1007.8
20260501210217 19 57 17.7 30.6 0.36 1.50 1.50 86 1008.4
20260501205039 20 19 17.7 33.8 0.23 1.45 1.45 86 1008.1
20260501204541 20 14 19.3 35.4 0.23 1.45 1.45 86 1007.9
20260501204037 20 44 20.9 35.4 0.33 1.42 1.42 86 1007.1
20260501200956 20 58 20.9 43.5 1.27 1.12 1.12 85 1007.4
20260501200452 20 28 20.9 43.5 0.00 1.04 1.04 86 1007.2
20260501195936 20 36 22.5 43.5 0.00 1.04 1.04 86 1007.3
20260501195418 20 62 20.9 43.5 0.13 1.04 1.04 86 1007.2
20260501194911 20 63 20.9 30.6 0.23 1.04 1.04 86 1007.3
20260501194352 20 64 20.9 32.2 0.41 1.04 1.04 86 1007.5
20260501193833 20 82 20.9 32.2 0.00 0.99 0.99 86 1007.5
20260501192638 20 11 17.7 30.6 0.10 0.97 0.97 85 1007.7
20260501192127 20 17 16.1 29.0 0.15 0.97 0.97 85 1007.6
20260501191623 20 55 16.1 29.0 0.30 0.97 0.97 85 1007.8
20260501191101 20 39 14.5 37.0 0.51 0.94 0.94 85 1008.1
20260501190544 20 36 12.9 37.0 0.18 0.89 0.91 84 1008.4
20260501190028 20 48 16.1 37.0 0.46 0.89 0.89 84 1008.5
20260501185535 20 32 17.7 37.0 0.00 0.84 0.84 84 1008.3
20260501185021 20 51 17.7 38.6 0.00 0.84 0.84 84 1008.0
20260501184513 20 45 19.3 38.6 0.00 0.84 0.84 84 1007.9
20260501183343 20 57 19.3 38.6 0.00 0.84 0.84 85 1007.7
20260501182845 20 71 19.3 37.0 0.00 0.84 0.84 85 1007.7